Date,TemperatureHighF,TemperatureAvgF,TemperatureLowF,DewpointHighF,DewpointAvgF,DewpointLowF,HumidityHigh,HumidityAvg,HumidityLow,PressureMaxIn,PressureMinIn,WindSpeedMaxMPH,WindSpeedAvgMPH,GustSpeedMaxMPH,PrecipitationSumIn
2013-3-2,56.3,54.7,52.3,39.9,38.2,36.9,58,54,50,29.92,29.88,3,2,8,0.00
2013-3-3,47.7,47.5,47.3,36.5,36.2,35.9,65,65,64,29.79,29.78,2,1,4,0.01
2013-3-4,41.2,40.7,40.3,31.1,30.9,30.5,69,68,66,29.62,29.62,1,1,4,0.00
2013-3-5,52.0,42.2,30.7,31.9,29.4,25.0,79,62,45,29.33,29.28,2,1,4,0.00
2013-3-6,40.8,40.2,39.2,35.0,34.2,33.7,84,79,76,29.34,29.31,3,2,8,0.00
2013-3-7,44.1,42.1,39.9,40.4,39.4,37.8,93,90,85,29.24,29.21,3,2,8,0.15
2013-3-8,39.9,38.3,37.0,35.3,34.2,32.5,87,85,81,29.36,29.21,5,3,14,0.02
2013-3-9,37.4,36.0,34.2,33.9,30.1,24.1,87,79,64,29.55,29.36,5,4,14,0.07
2013-3-10,36.1,32.1,28.9,29.3,25.1,19.9,85,75,66,29.71,29.54,6,3,17,0.06
2013-3-11,37.2,31.0,23.2,25.4,18.5,14.1,80,61,41,29.76,29.72,6,4,17,0.06
2013-3-12,42.6,37.0,24.3,29.1,23.3,13.5,66,58,49,29.65,29.53,4,2,12,0.00
2013-3-13,45.7,38.8,29.8,25.7,23.7,20.8,74,55,43,29.57,29.51,4,2,13,0.00
2013-3-14,45.1,37.2,29.5,33.7,28.3,20.1,81,70,63,29.57,29.36,6,3,13,0.00
2013-3-15,46.2,40.3,33.6,36.3,32.3,27.4,78,73,65,29.07,29.02,6,3,17,0.04
2013-3-16,36.0,34.6,32.5,31.9,30.2,26.8,86,84,78,29.02,28.83,4,2,10,0.32
2013-3-17,46.4,39.5,35.2,37.3,33.6,31.2,90,80,60,28.87,28.77,4,2,12,0.11
2013-3-18,37.2,35.0,31.1,32.2,30.1,27.7,87,82,77,29.15,28.98,5,3,16,0.05
2013-3-19,35.8,33.4,32.4,31.1,29.5,28.7,86,86,83,29.29,29.16,6,3,19,0.27
2013-3-20,38.5,35.8,33.1,28.7,26.8,24.5,81,70,61,29.57,29.40,4,2,11,0.00
2013-3-21,41.2,34.4,26.8,27.3,24.7,21.2,80,68,53,29.72,29.68,4,2,12,0.00
2013-3-22,34.3,33.5,32.9,26.1,24.4,23.7,74,69,65,29.61,29.58,8,6,22,0.00
2013-3-23,32.5,32.1,31.8,24.4,22.6,20.5,73,67,62,29.78,29.69,8,6,24,0.00
2013-3-24,34.3,32.8,31.3,22.8,21.2,19.8,66,62,55,29.91,29.81,6,4,21,0.00
2013-3-25,35.8,33.5,31.8,24.8,22.6,21.4,75,64,58,29.93,29.88,5,3,14,0.00
2013-3-26,39.2,35.1,30.9,26.4,23.1,20.3,73,62,52,29.84,29.78,5,3,14,0.00
2013-3-27,43.0,36.1,29.3,28.3,24.9,21.1,84,64,50,29.73,29.70,5,2,13,0.02
2013-3-28,41.5,35.6,29.1,27.6,23.2,20.4,86,61,50,29.74,29.69,5,2,13,0.07
2013-3-29,45.5,42.5,38.7,25.9,22.9,19.0,55,46,37,29.59,29.57,9,5,9,0.00
2013-3-30,40.5,35.8,30.2,31.7,27.9,25.7,83,73,64,29.63,29.52,4,2,6,0.06
2013-3-31,41.0,32.9,28.2,21.9,20.6,19.0,75,61,45,29.65,29.54,6,3,8,0.00